Location: Unspecified
(33.6682°S, 0.0000°E)
Time: 10:27:36
(UTC+00:00)

S-56A Canister/Altair - Pass Details

Date: 26 June 2019
Orbit: 632 x 2500 km, 38.9° (Epoch: 19 July)

Event Time Altitude Azimuth Distance (km) Brightness Sun altitude
Exits shadow 04:45:30 49° 240° (WSW) 1,970 9.1 -28.2°
Maximum altitude 04:48:21 67° 181° (S) 1,859 9.2 -27.6°
Drops below altitude 10° 05:01:23 10° 99° (E) 4,831 12.5 -25.0°
Sets 05:05:41 0° 96° (E) 6,007 13.3 -24.1°
